Time,TemperatureF,DewpointF,PressureIn,WindDirection,WindDirectionDegrees,WindSpeedMPH,WindSpeedGustMPH,Humidity,HourlyPrecipIn,Conditions,Clouds,dailyrainin,SoftwareType,DateUTC
2013-07-03 00:03:00,64.0,34.0,30.32,SW,235,4.0,8.0,32,0.00,,,0.02,,2013-07-03 06:03:00,
2013-07-03 00:13:00,64.0,34.0,30.32,SW,226,5.0,8.0,33,0.00,,,0.02,,2013-07-03 06:13:00,
2013-07-03 00:24:00,64.0,34.0,30.32,SW,226,5.0,8.0,33,0.00,,,0.02,,2013-07-03 06:24:00,
2013-07-03 00:58:00,62.0,33.0,30.32,SSE,153,4.0,6.0,34,0.00,,,0.02,,2013-07-03 06:58:00,
2013-07-03 01:04:00,61.0,33.0,30.32,SSE,165,0.0,7.0,35,0.00,,,0.02,,2013-07-03 07:04:00,
2013-07-03 01:13:00,60.0,33.0,30.32,South,170,1.0,5.0,36,0.00,,,0.02,,2013-07-03 07:13:00,
2013-07-03 01:25:00,60.0,33.0,30.32,South,170,1.0,5.0,36,0.00,,,0.02,,2013-07-03 07:25:00,
2013-07-03 01:36:00,60.0,34.0,30.31,SSE,163,5.0,8.0,37,0.00,,,0.02,,2013-07-03 07:36:00,
2013-07-03 01:46:00,60.0,34.0,30.31,SSE,163,5.0,8.0,37,0.00,,,0.02,,2013-07-03 07:46:00,
2013-07-03 02:05:00,62.0,35.0,30.31,South,173,5.0,9.0,36,0.00,,,0.02,,2013-07-03 08:05:00,
2013-07-03 02:15:00,62.0,35.0,30.31,South,173,5.0,9.0,36,0.00,,,0.02,,2013-07-03 08:15:00,
2013-07-03 02:24:00,62.0,34.0,30.31,South,171,6.0,11.0,35,0.00,,,0.02,,2013-07-03 08:24:00,
2013-07-03 02:36:00,63.0,35.0,30.30,SSE,160,5.0,11.0,35,0.00,,,0.02,,2013-07-03 08:36:00,
2013-07-03 02:45:00,63.0,35.0,30.30,SSE,160,5.0,11.0,35,0.00,,,0.02,,2013-07-03 08:45:00,
2013-07-03 02:56:00,62.0,35.0,30.30,SSE,160,4.0,9.0,36,0.00,,,0.02,,2013-07-03 08:56:00,
2013-07-03 03:03:00,62.0,35.0,30.30,SSE,165,5.0,9.0,36,0.00,,,0.02,,2013-07-03 09:03:00,
2013-07-03 06:35:00,57.0,34.0,30.31,SSW,195,6.0,7.0,41,0.00,,,0.02,,2013-07-03 12:35:00,
2013-07-03 06:43:00,57.0,34.0,30.31,SSW,195,6.0,7.0,41,0.00,,,0.02,,2013-07-03 12:43:00,
2013-07-03 06:58:00,57.0,34.0,30.31,SSW,195,4.0,7.0,42,0.00,,,0.02,,2013-07-03 12:58:00,
2013-07-03 08:14:00,62.0,36.0,30.32,South,169,5.0,9.0,38,0.00,,,0.02,,2013-07-03 14:14:00,
2013-07-03 08:35:00,65.0,37.0,30.33,SE,136,2.0,8.0,35,0.00,,,0.01,,2013-07-03 14:35:00,
2013-07-03 08:45:00,65.0,37.0,30.33,SE,136,2.0,8.0,35,0.00,,,0.01,,2013-07-03 14:45:00,
2013-07-03 09:14:00,70.0,38.0,30.33,East,93,4.0,9.0,31,0.00,,,0.01,,2013-07-03 15:14:00,
2013-07-03 09:26:00,71.0,38.0,30.33,ESE,111,2.0,7.0,30,0.00,,,0.01,,2013-07-03 15:26:00,
2013-07-03 09:45:00,72.0,37.0,30.33,East,85,4.0,7.0,28,0.00,,,0.00,,2013-07-03 15:45:00,
2013-07-03 09:57:00,73.0,37.0,30.33,NNE,26,2.0,8.0,27,0.00,,,0.00,,2013-07-03 15:57:00,
2013-07-03 10:05:00,74.0,37.0,30.33,North,5,2.0,8.0,26,0.00,,,0.00,,2013-07-03 16:05:00,
2013-07-03 10:23:00,75.0,36.0,30.33,NE,38,2.0,9.0,24,0.00,,,0.00,,2013-07-03 16:23:00,
2013-07-03 10:35:00,76.0,37.0,30.32,NE,49,5.0,10.0,24,0.00,,,0.00,,2013-07-03 16:35:00,
2013-07-03 10:45:00,76.0,37.0,30.32,NE,49,5.0,10.0,24,0.00,,,0.00,,2013-07-03 16:45:00,
2013-07-03 10:59:00,76.0,33.0,30.32,ENE,59,9.0,13.0,21,0.00,,,0.00,,2013-07-03 16:59:00,
2013-07-03 11:05:00,77.0,32.0,30.32,NW,323,8.0,15.0,19,0.00,,,0.00,,2013-07-03 17:05:00,
2013-07-03 11:14:00,77.0,32.0,30.32,NW,323,8.0,15.0,19,0.00,,,0.00,,2013-07-03 17:14:00,
2013-07-03 11:24:00,78.0,31.0,30.32,North,350,9.0,14.0,18,0.00,,,0.00,,2013-07-03 17:24:00,
2013-07-03 11:37:00,77.0,27.0,30.32,NW,309,4.0,12.0,16,0.00,,,0.00,,2013-07-03 17:37:00,
2013-07-03 11:46:00,77.0,27.0,30.32,NW,309,4.0,12.0,16,0.00,,,0.00,,2013-07-03 17:46:00,
2013-07-03 11:56:00,78.0,28.0,30.31,NNE,32,4.0,16.0,16,0.00,,,0.00,,2013-07-03 17:56:00,
2013-07-03 12:04:00,79.0,29.0,30.31,NE,42,8.0,15.0,16,0.00,,,0.00,,2013-07-03 18:04:00,
2013-07-03 12:15:00,79.0,29.0,30.31,NE,42,8.0,15.0,16,0.00,,,0.00,,2013-07-03 18:15:00,
2013-07-03 12:25:00,79.0,29.0,30.31,NNE,19,2.0,16.0,16,0.00,,,0.00,,2013-07-03 18:25:00,
2013-07-03 12:35:00,80.0,28.0,30.30,NW,314,4.0,13.0,15,0.00,,,0.00,,2013-07-03 18:35:00,
2013-07-03 12:44:00,80.0,28.0,30.30,NW,314,4.0,13.0,15,0.00,,,0.00,,2013-07-03 18:44:00,
2013-07-03 12:58:00,81.0,29.0,30.30,NNE,26,7.0,12.0,15,0.00,,,0.00,,2013-07-03 18:58:00,
2013-07-03 13:04:00,80.0,28.0,30.30,NE,41,5.0,14.0,15,0.00,,,0.00,,2013-07-03 19:04:00,
2013-07-03 13:15:00,80.0,28.0,30.30,NE,41,5.0,14.0,15,0.00,,,0.00,,2013-07-03 19:15:00,
2013-07-03 13:28:00,80.0,28.0,30.30,NNE,28,9.0,14.0,15,0.00,,,0.00,,2013-07-03 19:28:00,
2013-07-03 13:35:00,82.0,28.0,30.29,NW,308,5.0,18.0,14,0.00,,,0.00,,2013-07-03 19:35:00,
2013-07-03 13:45:00,82.0,28.0,30.29,NW,308,5.0,18.0,14,0.00,,,0.00,,2013-07-03 19:45:00,
2013-07-03 13:57:00,82.0,30.0,30.29,North,360,8.0,16.0,15,0.00,,,0.00,,2013-07-03 19:57:00,
2013-07-03 14:03:00,82.0,28.0,30.29,NNE,27,8.0,15.0,14,0.00,,,0.00,,2013-07-03 20:03:00,
2013-07-03 14:13:00,82.0,28.0,30.29,NNE,27,8.0,15.0,14,0.00,,,0.00,,2013-07-03 20:13:00,
2013-07-03 14:23:00,82.0,30.0,30.28,North,5,6.0,16.0,15,0.00,,,0.00,,2013-07-03 20:23:00,
2013-07-03 14:36:00,82.0,30.0,30.28,North,5,6.0,16.0,15,0.00,,,0.00,,2013-07-03 20:36:00,
2013-07-03 14:43:00,82.0,30.0,30.28,North,5,6.0,16.0,15,0.00,,,0.00,,2013-07-03 20:43:00,
2013-07-03 14:55:00,83.0,31.0,30.27,NNW,344,4.0,17.0,15,0.00,,,0.00,,2013-07-03 20:55:00,
2013-07-03 15:05:00,83.0,29.0,30.27,NE,35,8.0,21.0,14,0.00,,,0.00,,2013-07-03 21:05:00,
2013-07-03 15:24:00,83.0,29.0,30.27,NE,49,7.0,13.0,14,0.00,,,0.00,,2013-07-03 21:24:00,
2013-07-03 15:35:00,83.0,29.0,30.27,West,259,3.0,16.0,14,0.00,,,0.00,,2013-07-03 21:35:00,
2013-07-03 15:44:00,83.0,29.0,30.27,West,259,3.0,16.0,14,0.00,,,0.00,,2013-07-03 21:44:00,
2013-07-03 15:55:00,84.0,30.0,30.26,WNW,302,8.0,18.0,14,0.00,,,0.00,,2013-07-03 21:55:00,
2013-07-03 16:02:00,83.0,29.0,30.25,NNE,27,3.0,7.0,14,0.00,,,0.00,,2013-07-03 22:02:00,
2013-07-03 16:13:00,83.0,29.0,30.25,NNE,27,3.0,7.0,14,0.00,,,0.00,,2013-07-03 22:13:00,
2013-07-03 16:25:00,84.0,28.0,30.25,West,264,5.0,14.0,13,0.00,,,0.00,,2013-07-03 22:25:00,
2013-07-03 16:36:00,83.0,29.0,30.25,West,271,10.0,18.0,14,0.00,,,0.00,,2013-07-03 22:36:00,
2013-07-03 17:03:00,82.0,30.0,30.24,North,355,9.0,18.0,15,0.00,,,0.00,,2013-07-03 23:03:00,
2013-07-03 17:13:00,82.0,30.0,30.24,North,355,9.0,18.0,15,0.00,,,0.00,,2013-07-03 23:13:00,
2013-07-03 17:24:00,80.0,30.0,30.24,NNW,339,3.0,9.0,16,0.00,,,0.00,,2013-07-03 23:24:00,
2013-07-03 17:37:00,80.0,30.0,30.24,NNW,344,5.0,11.0,16,0.00,,,0.00,,2013-07-03 23:37:00,
2013-07-03 17:43:00,80.0,30.0,30.24,NNW,344,5.0,11.0,16,0.00,,,0.00,,2013-07-03 23:43:00,
2013-07-03 17:56:00,80.0,31.0,30.24,NNW,348,5.0,13.0,17,0.00,,,0.00,,2013-07-03 23:56:00,
2013-07-03 18:02:00,79.0,30.0,30.24,NNW,340,6.0,13.0,17,0.00,,,0.00,,2013-07-04 00:02:00,
2013-07-03 18:23:00,79.0,30.0,30.23,NNW,336,4.0,10.0,17,0.00,,,0.00,,2013-07-04 00:23:00,
2013-07-03 18:35:00,78.0,31.0,30.23,WNW,288,8.0,23.0,18,0.00,,,0.00,,2013-07-04 00:35:00,
2013-07-03 18:46:00,78.0,31.0,30.23,WNW,288,8.0,23.0,18,0.00,,,0.00,,2013-07-04 00:46:00,
2013-07-03 18:57:00,76.0,33.0,30.25,North,9,10.0,31.0,21,0.00,,,0.00,,2013-07-04 00:57:00,
2013-07-03 19:03:00,74.0,34.0,30.26,WNW,286,7.0,15.0,23,0.00,,,0.00,,2013-07-04 01:03:00,
2013-07-03 19:23:00,73.0,35.0,30.27,NW,304,8.0,21.0,25,0.00,,,0.00,,2013-07-04 01:23:00,
2013-07-03 19:35:00,73.0,36.0,30.27,West,272,6.0,16.0,26,0.00,,,0.00,,2013-07-04 01:35:00,
2013-07-03 19:43:00,73.0,36.0,30.27,West,272,6.0,16.0,26,0.00,,,0.00,,2013-07-04 01:43:00,
2013-07-03 19:55:00,73.0,33.0,30.25,SE,134,2.0,13.0,23,0.00,,,0.00,,2013-07-04 01:55:00,
2013-07-03 20:05:00,73.0,33.0,30.24,West,259,2.0,7.0,23,0.00,,,0.00,,2013-07-04 02:05:00,
2013-07-03 20:12:00,73.0,33.0,30.24,West,259,2.0,7.0,23,0.00,,,0.00,,2013-07-04 02:12:00,
2013-07-03 20:23:00,72.0,32.0,30.25,West,259,0.0,3.0,23,0.00,,,0.00,,2013-07-04 02:23:00,
2013-07-03 20:38:00,72.0,33.0,30.25,WSW,257,1.0,5.0,24,0.00,,,0.00,,2013-07-04 02:38:00,
2013-07-03 20:45:00,72.0,33.0,30.25,WSW,257,1.0,5.0,24,0.00,,,0.00,,2013-07-04 02:45:00,
2013-07-03 20:56:00,71.0,33.0,30.26,West,280,1.0,6.0,25,0.00,,,0.00,,2013-07-04 02:56:00,
2013-07-03 21:04:00,70.0,34.0,30.26,WNW,290,1.0,5.0,27,0.00,,,0.00,,2013-07-04 03:04:00,
2013-07-03 21:26:00,69.0,34.0,30.27,WNW,290,1.0,5.0,27,0.00,,,0.00,,2013-07-04 03:26:00,
2013-07-03 21:34:00,68.0,34.0,30.27,WNW,300,3.0,8.0,28,0.00,,,0.00,,2013-07-04 03:34:00,
2013-07-03 21:45:00,68.0,34.0,30.27,WNW,300,3.0,8.0,28,0.00,,,0.00,,2013-07-04 03:45:00,
2013-07-03 21:57:00,68.0,34.0,30.28,NW,322,2.0,7.0,28,0.00,,,0.00,,2013-07-04 03:57:00,
2013-07-03 22:02:00,68.0,35.0,30.28,NW,314,3.0,8.0,29,0.00,,,0.00,,2013-07-04 04:02:00,
2013-07-03 22:11:00,68.0,35.0,30.28,NW,314,3.0,8.0,29,0.00,,,0.00,,2013-07-04 04:11:00,
2013-07-03 22:22:00,68.0,35.0,30.28,WNW,292,2.0,6.0,29,0.00,,,0.00,,2013-07-04 04:22:00,
2013-07-03 22:33:00,67.0,34.0,30.29,WNW,302,2.0,6.0,29,0.00,,,0.00,,2013-07-04 04:33:00,
2013-07-03 22:43:00,67.0,34.0,30.29,WNW,302,2.0,6.0,29,0.00,,,0.00,,2013-07-04 04:43:00,
2013-07-03 22:52:00,67.0,35.0,30.29,NW,316,0.0,2.0,30,0.00,,,0.00,,2013-07-04 04:52:00,
2013-07-03 23:01:00,66.0,34.0,30.30,NW,316,0.0,0.0,30,0.00,,,0.00,,2013-07-04 05:01:00,
2013-07-03 23:12:00,66.0,34.0,30.30,NW,316,0.0,0.0,30,0.00,,,0.00,,2013-07-04 05:12:00,
2013-07-03 23:22:00,65.0,34.0,30.31,NW,316,0.0,1.0,31,0.00,,,0.00,,2013-07-04 05:22:00,
2013-07-03 23:32:00,65.0,35.0,30.32,NW,316,0.0,3.0,33,0.00,,,0.00,,2013-07-04 05:32:00,
2013-07-03 23:43:00,65.0,35.0,30.32,NW,316,0.0,3.0,33,0.00,,,0.00,,2013-07-04 05:43:00,
2013-07-03 23:52:00,64.0,36.0,30.31,ESE,105,4.0,10.0,35,0.00,,,0.00,,2013-07-04 05:52:00,